565  
NZUS99 KDVN 201110  
HRRRRR  
HOURLY WEATHER ROUNDUP  
NATIONAL WEATHER SERVICE QUAD CITIES IA IL  
600 AM CDT WED JUN 20 2018  
 
NOTE: "FAIR" INDICATES FEW OR NO CLOUDS BELOW 12,000 FEET WITH  
NO SIGNIFICANT WEATHER AND/OR OBSTRUCTIONS TO VISIBILITY.  
------------------------------------------------------------------  
 
CITY SKY/WX TMP DP RH WIND PRES REMARKS  
BURLINGTON MOCLDY 70 69 97 CALM 29.88R FOG  
CEDAR RAPIDS FOG 70 70 100 E9 29.87R VSB 3/4  
DAVENPORT CLOUDY 69 67 93 E5 29.90R  
DUBUQUE CLOUDY 65 63 93 CALM 29.90S FOG  
IOWA CITY CLOUDY 71 70 96 SE6 29.88S FOG  
MOLINE FOG 71 70 96 CALM 29.88S VSB 1/4  
------------------------------------------------------------------  
THE STATIONS BELOW ARE NOT NWS STATIONS AND ARE NOT SUBJECT TO NWS  
QUALITY CONTROL. SOME STATIONS DO NOT REPORT WEATHER SUCH AS FOG.  
* - STATIONS THAT REPORT TMP AND DP IN WHOLE DEGREES CELSIUS, WHICH  
ARE THEN CONVERTED TO FAHRENHEIT.  
------------------------------------------------------------------  
 
CITY SKY/WX TMP DP RH WIND PRES REMARKS  
CLINTON N/A N/A N/A N/A E5 29.90S FOG  
FAIRFIELD * NOT AVBL  
FORT MADISON * PTCLDY 70 70 100 CALM 29.88S  
FREEPORT CLOUDY 63 63 100 N6 29.92S FOG  
INDEPENDENCE * N/A 67 67 97 E6 29.88  
KEOKUK * PTCLDY 68 68 100 SW3 29.87S  
MACOMB FOG 66 66 100 CALM 29.91R VSB 1/4  
MONTICELLO * CLOUDY 68 68 100 MISG 29.89S FOG  
MT PLEASANT CLOUDY 68 68 100 E3 29.88S  
MUSCATINE * N/A N/A N/A N/A MISG N/A  
SAVANNA CLOUDY 66 64 94 N5 29.90R FOG  
STERLING/R.F. CLOUDY 67 66 97 E3 29.90R FOG  
VINTON * CLOUDY 71 70 96 E6 29.88S FOG  
WASHINGTON * CLOUDY 72 72 100 CALM 29.88S FOG  
------------------------------------------------------------------  
 
 
CLICK HERE TO GO TO PREVIOUS BULLETINS.

The Nexlab IL Page
The Nexlab IA Page
The Nexlab MO Page Main Text Page